, NM

(GMT )
Holloman AFB

Weather History for KHMN - August, 2013

Change the Weather History Date:

Thursday, August 22, 2013

  Actual Average Record
Temperature  
Mean Temperature 82 °F -  
Max Temperature 94 °F 90 °F 97 °F (2007)
Min Temperature 70 °F 63 °F 59 °F (2006)
Cooling Degree Days 16    
Growing Degree Days 32 (Base 50)    
Moisture  
Dew Point 40 °F    
Average Humidity 23    
Maximum Humidity 34    
Minimum Humidity 13    
Precipitation  
Precipitation 0.00 in - - ()
Sea Level Pressure  
Sea Level Pressure 29.89 in    
Wind  
Wind Speed 5 mph (SSW)    
Max Wind Speed 9 mph    
Max Gust Speed 17 mph    
Visibility 10 miles    
Events      
Averages and records for this station are not official NWS values.
T = Trace of Precipitation, MM = Missing Value Source: NWS Daily Summary

Daily Weather History Graph

Daily Weather History Graph

Search for Another Location

Airport or City:

Trip Planner

Search our weather history database for the weather conditions in past years. The results will help you decide how hot, cold, wet, or windy it might be!

Date:

Astronomy

Aug. 22, 2013 Rise Set
Actual Time 6:32 AM MDT 7:41 PM MDT
Civil Twilight 6:07 AM MDT 8:06 PM MDT
Nautical Twilight 5:36 AM MDT 8:37 PM MDT
Astronomical Twilight 5:05 AM MDT 9:08 PM MDT
Moon 8:37 PM MDT (8/22) 8:15 AM MDT (8/22)
Length of Visible Light 13h 59m
Length of Day
13h 08m
Waning Gibbous, 96% of the Moon is Illuminated
Aug 22
Waning Gibbous
Aug 28
Last Quarter
Sep 5
New
Sep 12
First Quarter
Sep 19
Full

Hourly Weather History & Observations

Time (MDT) Temp. Dew Point Humidity Pressure Visibility Wind Dir Wind Speed Gust Speed Precip Events Conditions
12:56 AM 77.9 °F 37.6 °F 23% 29.91 in 10.0 mi SSW 3.5 mph - N/A   Clear
1:56 AM 75.0 °F 37.8 °F 26% 29.91 in 11.0 mi SSE 4.6 mph - N/A   Clear
2:56 AM 74.7 °F 39.2 °F 28% 29.91 in 10.0 mi SSE 8.1 mph - N/A   Clear
3:56 AM 73.4 °F 41.9 °F 32% 29.91 in 10.0 mi SSE 4.6 mph - N/A   Clear
4:56 AM 72.1 °F 42.1 °F 34% 29.92 in 10.0 mi ESE 3.5 mph - N/A   Partly Cloudy
5:56 AM 73.2 °F 39.7 °F 30% 29.91 in 10.0 mi Calm Calm - N/A   Mostly Cloudy
6:56 AM 70.3 °F 39.9 °F 33% 29.95 in 10.0 mi North 2.3 mph - N/A   Mostly Cloudy
7:56 AM 72.7 °F 42.3 °F 33% 29.96 in 10.0 mi NNE 6.9 mph - N/A   Mostly Cloudy
8:56 AM 76.5 °F 42.4 °F 30% 29.96 in 12.0 mi North 8.1 mph - N/A   Scattered Clouds
9:56 AM 83.5 °F 45.1 °F 26% 29.97 in 10.0 mi SW 3.5 mph - N/A   Mostly Cloudy
10:56 AM 86.0 °F 44.4 °F 23% 29.97 in 10.0 mi South 2.3 mph - N/A   Scattered Clouds
11:56 AM 89.6 °F 44.6 °F 21% 29.94 in 10.0 mi SSW 5.8 mph - N/A   Scattered Clouds
12:56 PM 89.6 °F 42.8 °F 20% 29.91 in 10.0 mi ENE 3.5 mph - N/A   Scattered Clouds
1:56 PM 91.4 °F 42.8 °F 18% 29.89 in 10.0 mi NNE 3.5 mph - N/A   Scattered Clouds
2:56 PM 93.2 °F 42.8 °F 17% 29.86 in 10.0 mi North 2.3 mph - N/A   Scattered Clouds
3:56 PM 91.4 °F 42.8 °F 18% 29.84 in 10.0 mi NW 8.1 mph 13.8 mph N/A   Mostly Cloudy
7:56 PM 86.9 °F 34.5 °F 15% 29.81 in 12.0 mi WSW 9.2 mph 17.3 mph N/A   Clear
7:57 PM 91.4 °F 33.8 °F 13% 29.80 in 10.0 mi SSW 6.9 mph - N/A   Clear
7:58 PM 86.0 °F 35.6 °F 17% 29.81 in 12.0 mi WSW 6.9 mph 16.1 mph N/A   Clear
8:55 PM 86.0 °F 35.6 °F 17% 29.81 in 10.0 mi WSW 6.9 mph 16.1 mph N/A   Clear
9:55 PM 84.2 °F 35.6 °F 18% 29.83 in 10.0 mi SSE 9.2 mph - N/A   Clear
9:56 PM 81.9 °F 35.6 °F 19% 29.87 in 12.0 mi SSW 3.5 mph - N/A   Clear
10:55 PM 80.6 °F 35.6 °F 20% 29.86 in 10.0 mi SSW 3.5 mph - N/A   Clear
11:55 PM 78.8 °F 39.2 °F 24% 29.86 in 10.0 mi SSW 4.6 mph - N/A   Clear